STARLINK-35396

Last updated on Mon Oct 20 2025 00:02:07 GMT+0000 (Coordinated Universal Time)

1 65828U 25221F 25292.25002315 -.01558893 00000+0 -28644-1 0 9994 2 65828 53.1606 27.8453 0001132 87.6806 242.9623 15.51582936 4437
UTC large
Height (km)
Speed (km/s)
/
Latitude / Longitude
Inclination (degrees)
Orbital Period (minutes)
Azimuth
Elevation
Range (km)
Doppler Factor

Next 0 passes for location: London (51.5072 / 0.1276)

Sorry there are no passes over London.